Regional Weather Roundup
Issued by NWS State College, PA

Home | Current Version | Previous Version | Graphics & Text | Print | Product List | Glossary Off
Versions: 1 2 3 4 5 6 7 8 9 10 11 12 13 14 15 16 17 18 19 20 21 22 23 24 25 26 27 28 29 30 31 32 33 34 35 36 37 38 39 40 41 42 43 44 45 46 47 48 49 50

000
ASUS41 KCTP 312203
RWRCTP

REGIONAL WEATHER ROUNDUP
NATIONAL WEATHER SERVICE STATE COLLEGE PA
600 PM EDT WED AUG 31 2016

Note: "fair" indicates few or no clouds below 12,000 feet with no
significant weather and/or obstructions to visibility.

* = STATION THAT DOES NOT REPORT PRECIPITATION /E.G. RAIN...SNOW...ETC/
    THUNDER OR FOG.

PAZ002>004-007>009-013>016-020>023-029>032-312300-
WESTERN PENNSYLVANIA

CITY           SKY/WX    TMP DP  RH WIND       PRES   REMARKS
ERIE           PTSUNNY   74  69  85 SW6       29.92S
MEADVILLE      MOSUNNY   71  65  81 S7        29.95F
FRANKLIN*        N/A     68  64  88 S6        29.97R
NEW CASTLE     CLOUDY    69  69 100 VRB3      29.96S
BEAVER COUNTY  NOT AVBL
BUTLER*        NOT AVBL
PITTSBURGH INT LGT RAIN  77  63  61 N9        29.94S
PITTSBURGH     CLOUDY    78  62  57 NE5       29.93S
INDIANA*       PTSUNNY   73  64  73 CALM      29.98F
LATROBE        PTSUNNY   77  64  65 CALM      29.95F
WASHINGTON CO* PTSUNNY   81  64  57 CALM      29.93F
$$

PAZ004>006-010>012-017>019-024>028-033>037-041-042-045-046-049>053-312300-
CENTRAL PENNSYLVANIA

CITY           SKY/WX    TMP DP  RH WIND       PRES   REMARKS
BRADFORD       CLOUDY    68  67  96 W5        29.97S
DUBOIS         CLOUDY    68  63  84 CALM      29.96F
CLEARFIELD     LGT RAIN  69  66  90 E3        29.96F
JOHNSTOWN      CLOUDY    74  57  55 N3        29.99F
ALTOONA        CLOUDY    78  61  55 N3        29.95F
STATE COLLEGE  PTSUNNY   72  64  78 NE6       29.95F
WILLIAMSPORT   CLOUDY    75  64  68 W7        29.90S
SELINSGROVE    CLOUDY    79  69  71 N3        29.90F
FT INDIANTOWN  CLOUDY    72  68  86 N3        29.89S
CAPITAL CITY   PTSUNNY   80  72  76 SE7       29.87S
HARRISBURG     CLOUDY    80  74  81 N3        29.87R
YORK           TSTM      70  69  97 SW6       29.92R
$$

PAZ038>040-043-044-047-048-054-055-060>062-067>071-312300-
EASTERN PENNSYLVANIA

CITY           SKY/WX    TMP DP  RH WIND       PRES   REMARKS
SCRANTON       CLOUDY    79  65  62 CALM      29.91F
MOUNT POCONO   CLOUDY    75  61  61 W5        29.96F
ALLENTOWN      CLOUDY    84  68  58 N7        29.88F
QUAKERTOWN*    CLOUDY    86  59  39 CALM      29.89S
READING        CLOUDY    78  71  79 S5        29.87S
LANCASTER      PTSUNNY   75  74  96 E7        29.88S
COATESVILLE    CLOUDY    82  68  61 N6        29.91S
POTTSTOWN      CLOUDY    84  64  50 CALM      29.89F
BLUE BELL      CLOUDY    84  63  48 SW3       29.86F
DOYLESTOWN     MOSUNNY   86  68  54 VRB3      29.87F
WILLOW GROVE   NOT AVBL
NORTH PHILA    MOSUNNY   88  63  43 SW6       29.87F
PHILADELPHIA   PTSUNNY   88  64  44 SW10      29.86F
$$




USA.gov is the U.S. government's official web portal to all federal, state and local government web resources and services.